Spokane Fairchild, WA
on Friday, November 9, 2012

Friday
Previous Day Next Day
Daily Summary
 ActualAverage (KGEG)Record (KGEG)
Temperature
Mean Temperature °F 38°F  
Max Temperature 32°F 45°F 62°F (1899)
Min Temperature 23°F 32°F 12°F (1945)
Degree Days
Heating Degree Days 38 27  
Month to date heating degree days 228  
Since 1 July heating degree days 1016  
Cooling Degree Days 0 0  
Month to date cooling degree days 0  
Year to date cooling degree days 450  
Moisture
Dew Point 29°F   
Average Humidity 100    
Maximum Humidity 100    
Minimum Humidity 100    
Precipitation
Precipitation 0.01 in 0.07 in 0.74 in (1973)
Month to date precipitation 0.61  
Year to date precipitation 12.57  
Snow
Snow 0.00 in 0.20 in 5.30 in (1977)
Month to date snowfall 0.9  
Since 1 July snowfall 1.0  
Since 1 September snowfall 1.0  
Snow Depth 3.00 in   
Wind
Wind Speed 7 mph   
Max Wind Speed 10 mph   
Max Gust Speed mph   
Visibility 10 miles   
Events Snow   

Key: T is trace of precipitation, MM is missing value
Source: NWS Daily Summary
Time(PST)TemperatureDew PointHumidity Pressure Visibility Wind DirectionWind SpeedGust SpeedPrecipitationEvents Conditions
12:33 AM 32.0°F 32.0°F 100% 29.70 in 5.0 miles North 6.9 mph - N/A Snow Light Snow
12:53 AM 32.0°F 32.0°F 100% 29.70 in 6.0 miles North 8.1 mph - N/A Snow Light Snow
12:58 AM 30.6°F 30.6°F 100% 29.75 in 7.0 miles North 8.1 mph - 0.01 in Snow Light Snow
1:03 AM 32.0°F 32.0°F 100% 29.70 in 7.0 miles North 8.1 mph - N/A Snow Light Snow
1:28 AM 30.2°F 30.2°F 100% 29.70 in 10.0 miles North 8.1 mph - N/A Snow Light Snow
1:35 AM 30.2°F 30.2°F 100% 29.71 in 10.0 miles North 8.1 mph - N/A   Overcast
1:55 AM 32.0°F 32.0°F 100% 29.71 in 10.0 miles North 8.1 mph - N/A   Overcast
1:58 AM 30.4°F 30.4°F 100% 29.76 in 10.0 miles North 9.2 mph - 0.00 in   Overcast
2:01 AM 32.0°F 32.0°F 100% 29.71 in 10.0 miles North 8.1 mph - N/A   Overcast
2:02 AM 32.0°F 32.0°F 100% 29.71 in 10.0 miles North 8.1 mph - N/A   Light Freezing Drizzle
2:17 AM 32.0°F 32.0°F 100% 29.71 in 10.0 miles North 8.1 mph - N/A   Overcast
2:18 AM 32.0°F 32.0°F 100% 29.72 in 10.0 miles North 6.9 mph - N/A   Overcast
2:29 AM 32.0°F 32.0°F 100% 29.72 in 10.0 miles North 8.1 mph - N/A   Light Freezing Drizzle
2:35 AM 32.0°F 32.0°F 100% 29.72 in 10.0 miles NNW 6.9 mph - N/A   Overcast
2:40 AM 30.2°F 30.2°F 100% 29.72 in 10.0 miles NNW 6.9 mph - N/A   Overcast
2:58 AM 30.2°F 30.2°F 100% 29.78 in 10.0 miles NNW 6.9 mph - 0.00 in   Overcast
3:35 AM 30.2°F 30.2°F 100% 29.72 in 10.0 miles North 9.2 mph - N/A   Overcast
3:58 AM 30.2°F 30.2°F 100% 29.78 in 10.0 miles North 9.2 mph - 0.00 in   Overcast
4:58 AM 29.8°F 29.8°F 100% 29.81 in 10.0 miles NNW 8.1 mph - N/A   Overcast
5:13 AM 30.2°F 30.2°F 100% 29.74 in 10.0 miles NNW 9.2 mph - N/A   Overcast
5:33 AM 30.2°F 30.2°F 100% 29.74 in 10.0 miles NNW 8.1 mph - N/A   Overcast
5:45 AM 30.2°F 30.2°F 100% 29.74 in 10.0 miles NNW 6.9 mph - N/A   Overcast
5:58 AM 29.7°F 29.7°F 100% 29.81 in 10.0 miles Variable 5.8 mph - 0.00 in   Overcast
6:23 AM 30.2°F 30.2°F 100% 29.75 in 10.0 miles NNW 8.1 mph - N/A   Overcast
6:48 AM 30.2°F 30.2°F 100% 29.75 in 10.0 miles NNW 8.1 mph - N/A Snow Light Snow
6:53 AM 30.2°F 30.2°F 100% 29.75 in 10.0 miles NNW 8.1 mph - N/A Snow Light Snow
6:58 AM 29.3°F 29.3°F 100% 29.82 in 10.0 miles NNW 8.1 mph - 0.00 in Snow Light Snow
7:13 AM 28.4°F 28.4°F 100% 29.76 in 10.0 miles North 9.2 mph - N/A Snow Light Snow
7:58 AM 29.1°F 29.1°F 100% 29.85 in 9.0 miles North 9.2 mph - 0.00 in Snow Light Snow
8:03 AM 28.4°F 28.4°F 100% 29.77 in 7.0 miles North 8.1 mph - N/A Snow Light Snow
8:23 AM 28.4°F 28.4°F 100% 29.78 in 8.0 miles NNW 8.1 mph - N/A Snow Light Snow
8:33 AM 28.4°F 28.4°F 100% 29.78 in 10.0 miles NNW 5.8 mph - N/A Snow Light Snow
8:38 AM 28.4°F 28.4°F 100% 29.78 in 10.0 miles North 5.8 mph - N/A Snow Light Snow
8:50 AM 28.4°F 28.4°F 100% 29.78 in 10.0 miles North 4.6 mph - N/A Snow Light Snow
8:55 AM 30.2°F 30.2°F 100% 29.78 in 10.0 miles NNW 4.6 mph - N/A Snow Light Snow
8:58 AM 29.5°F 29.5°F 100% 29.85 in 10.0 miles NNW 4.6 mph - 0.00 in Snow Light Snow
9:28 AM 28.4°F 28.4°F 100% 29.78 in 10.0 miles North 5.8 mph - N/A   Overcast
9:29 AM 30.2°F 30.2°F 100% 29.78 in 10.0 miles North 5.8 mph - N/A Snow Light Snow
9:33 AM 30.2°F 30.2°F 100% 29.78 in 10.0 miles North 5.8 mph - N/A   Overcast
9:48 AM 30.2°F 30.2°F 100% 29.79 in 10.0 miles NNW 6.9 mph - N/A   Overcast
9:58 AM 29.3°F 29.3°F 100% 29.86 in 10.0 miles NNW 5.8 mph - 0.00 in   Overcast
10:03 AM 30.2°F 30.2°F 100% 29.79 in 10.0 miles North 6.9 mph - N/A   Overcast
10:18 AM 30.2°F 30.2°F 100% 29.80 in 10.0 miles NNW 6.9 mph - N/A   Overcast
10:23 AM 30.2°F 30.2°F 100% 29.80 in 10.0 miles North 6.9 mph - N/A   Overcast
10:33 AM 30.2°F 30.2°F 100% 29.80 in 10.0 miles North 4.6 mph - N/A   Overcast
10:34 AM 30.2°F 30.2°F 100% 29.80 in 10.0 miles North 4.6 mph - N/A   Overcast
10:43 AM 30.2°F 30.2°F 100% 29.80 in 10.0 miles NNW 6.9 mph - N/A   Overcast
10:58 AM 29.8°F 29.8°F 100% 29.87 in 10.0 miles NNW 6.9 mph - 0.00 in   Overcast
11:18 AM 30.2°F 30.2°F 100% 29.79 in 10.0 miles North 8.1 mph - N/A   Overcast
11:23 AM 30.2°F 30.2°F 100% 29.79 in 10.0 miles North 9.2 mph - N/A   Overcast
11:33 AM 30.2°F 30.2°F 100% 29.79 in 10.0 miles North 9.2 mph - N/A   Overcast
11:38 AM 30.2°F 30.2°F 100% 29.79 in 10.0 miles North 8.1 mph - N/A   Overcast
11:50 AM 30.2°F 30.2°F 100% 29.79 in 10.0 miles North 9.2 mph - N/A   Overcast
11:59 AM 29.7°F 29.7°F 100% 29.86 in 10.0 miles North 8.1 mph - N/A   Overcast
12:00 PM 30.2°F 30.2°F 100% 29.79 in 10.0 miles North 6.9 mph - N/A   Overcast
12:05 PM 30.2°F 30.2°F 100% 29.80 in 10.0 miles North 8.1 mph - N/A   Overcast
12:15 PM 30.2°F 30.2°F 100% 29.79 in 10.0 miles North 8.1 mph - N/A   Overcast
12:20 PM 30.2°F 30.2°F 100% 29.80 in 10.0 miles North 6.9 mph - N/A   Overcast
12:21 PM 30.2°F 30.2°F 100% 29.80 in 10.0 miles North 6.9 mph - N/A   Overcast
12:58 PM 29.8°F 29.8°F 100% 29.86 in 10.0 miles NNW 6.9 mph - N/A   Overcast
1:43 PM 30.2°F 30.2°F 100% 29.79 in 10.0 miles Variable 5.8 mph - N/A   Overcast
1:53 PM 30.2°F 30.2°F 100% 29.79 in 10.0 miles WNW 3.5 mph - N/A   Overcast
1:58 PM 29.7°F 29.7°F 100% 29.86 in 10.0 miles NW 5.8 mph - N/A   Overcast
2:33 PM 30.2°F 30.2°F 100% 29.80 in 10.0 miles NW 3.5 mph - N/A   Overcast
2:58 PM 29.5°F 29.5°F 100% 29.88 in 10.0 miles North 9.2 mph - N/A   Overcast
3:08 PM 28.4°F 28.4°F 100% 29.80 in 10.0 miles North 6.9 mph - N/A   Overcast
3:38 PM 28.4°F 28.4°F 100% 29.80 in 10.0 miles North 8.1 mph - N/A   Overcast
3:53 PM 28.4°F 28.4°F 100% 29.80 in 10.0 miles North 8.1 mph - N/A   Overcast
3:58 PM 29.1°F 29.1°F 100% 29.88 in 10.0 miles North 8.1 mph - N/A   Overcast
4:23 PM 28.4°F 28.4°F 100% 29.81 in 10.0 miles North 8.1 mph - N/A   Overcast
4:31 PM 28.4°F 28.4°F 100% 29.81 in 10.0 miles North 10.4 mph - N/A   Overcast
4:38 PM 28.4°F 28.4°F 100% 29.81 in 10.0 miles North 10.4 mph - N/A   Overcast
4:53 PM 28.4°F 28.4°F 100% 29.81 in 10.0 miles NNE 9.2 mph - N/A Snow Light Snow
4:58 PM 28.6°F 28.6°F 100% 29.89 in 10.0 miles NNE 10.4 mph - 0.00 in   Overcast
5:01 PM 28.4°F 28.4°F 100% 29.81 in 10.0 miles North 9.2 mph - N/A   Overcast
5:11 PM 28.4°F 28.4°F 100% 29.81 in 10.0 miles North 8.1 mph - N/A   Overcast
5:21 PM 28.4°F 28.4°F 100% 29.81 in 10.0 miles NNE 9.2 mph - N/A   Overcast
5:26 PM 28.4°F 28.4°F 100% 29.81 in 10.0 miles NNE 9.2 mph - N/A   Overcast
5:31 PM 28.4°F 28.4°F 100% 29.81 in 10.0 miles NNE 9.2 mph - N/A   Overcast
5:58 PM 28.6°F 28.6°F 100% 29.90 in 10.0 miles NNE 9.2 mph - 0.00 in   Overcast
6:28 PM 28.4°F 28.4°F 100% 29.82 in 10.0 miles North 8.1 mph - N/A   Overcast
6:58 PM 28.0°F 28.0°F 100% 29.91 in 10.0 miles North 8.1 mph - N/A   Overcast
7:38 PM 28.4°F 28.4°F 100% 29.83 in 10.0 miles NNE 6.9 mph - N/A   Overcast
7:58 PM 27.7°F 27.7°F 100% 29.91 in 10.0 miles North 8.1 mph - N/A   Overcast
8:08 PM 26.6°F 26.6°F 100% 29.83 in 10.0 miles North 8.1 mph - N/A   Overcast
8:47 PM 26.6°F 26.6°F 100% 29.84 in 10.0 miles North 6.9 mph - N/A   Overcast
8:58 PM 25.7°F 25.7°F 100% 29.92 in 10.0 miles North 8.1 mph - N/A   Overcast
9:07 PM 24.8°F 24.8°F 100% 29.84 in 10.0 miles NNW 5.8 mph - N/A   Overcast
9:27 PM 23.0°F 23.0°F 100% 29.84 in 10.0 miles NW 5.8 mph - N/A   Overcast
9:42 PM 23.0°F 23.0°F 100% 29.84 in 10.0 miles NW 5.8 mph - N/A   Overcast
9:58 PM 23.7°F 23.7°F 100% 29.93 in 10.0 miles NNW 5.8 mph - 0.00 in   Overcast
10:53 PM 24.8°F 24.8°F 100% 29.84 in 10.0 miles North 4.6 mph - N/A   Overcast
10:58 PM 24.4°F 24.4°F 100% 29.94 in 10.0 miles North 5.8 mph - N/A   Overcast
11:14 PM 23.0°F 23.0°F 100% 29.85 in 10.0 miles NNW 4.6 mph - N/A   Overcast
11:31 PM 23.0°F 23.0°F 100% 29.85 in 10.0 miles NNW 5.8 mph - N/A   Overcast
11:58 PM 23.5°F 23.5°F 100% 29.94 in 10.0 miles North 6.9 mph - 0.00 in   Overcast
Moon Phase
Nov. 09 Nov. 13 Nov. 20 Nov. 28 Dec. 06
Sunrise:06:47 AM (PST) Moon Rise:01:32 AM (PST)11/9
Sunset:04:20 PM (PST) Moon Set:01:53 PM (PST)11/9

Copyright © 2014 The Weather Underground, Inc.